ZHONGXING-6E

Last updated on Thu Oct 30 2025 00:02:52 GMT+0000 (Coordinated Universal Time)

1 58253U 23172A 25302.56211007 -.00000351 00000+0 00000+0 0 9990 2 58253 0.0180 240.9319 0003134 69.2061 45.8805 1.00268510 7344
UTC large
Height (km)
Speed (km/s)
/
Latitude / Longitude
Inclination (degrees)
Orbital Period (minutes)
Azimuth
Elevation
Range (km)
Doppler Factor

Next 0 passes for location: London (51.5072 / 0.1276)

Sorry there are no passes over London.